Meath Environmental Platform

Observations

Time Sensor AQI SAQ Temp °C Hum % Pres Pa CO μg/m³ H₂S μg/m³ NO μg/m³ NO₂ μg/m³ O₃ μg/m³ SO₂ μg/m³ CO₂e PPM VOC PPM PM1 μg/m³ PM2.5 μg/m³ PM4 μg/m³ PM10 μg/m³ TPS µm
Tuesday 11 August 2026
00:54 Trim Market St 2 15 62 57,819 0.25 0 1.85 17.5 39.3 0 1.43 2.42 4.17
00:54 Trim Patrick St 2 13.5 70 33,409 0.21 6.22 3.43 34.31 12.19 0 2.86 6.63 7.29
00:53 Trim Patrick St 2 13.6 70 31,724 0.2 6.95 3.3 34.69 14.13 0 2.86 6.63 7.29
00:52 Trim Patrick St 2 13.5 69 29,479 0.2 5.96 3.12 37.41 10.29 0 2.86 6.64 7.31
00:51 Trim Patrick St 2 13.6 69 26,486 0.21 6.35 2.75 36.45 11.78 0 2.86 6.64 7.31
00:50 Trim Patrick St 2 13.6 69 22,494 0.19 6.07 2.83 34.66 12.6 0 3.71 8.09 8.9
00:49 Trim Market St 2 15.1 62 57,833 0.24 0 1.45 13.79 41.6 0 1.43 3.43 4.83
00:49 Trim Patrick St 2 13.6 69 18,328 0.2 6.09 3.12 35.09 12.28 0 3.71 7.38 8.12
00:48 Trim Market St 2 15.1 62 57,836 0.23 0 1.41 22.67 39.99 0 1.43 2.93 5.51
00:48 Trim Patrick St 2 13.6 69 14,385 0.2 5.91 3.17 33.73 13.41 0 2.86 6.66 7.33
00:47 Trim Market St 2 15.1 62 57,839 0.22 0 1.58 14.11 40.56 0 1.43 3.93 5.5
00:47 Trim Patrick St 2 13.6 69 10,500 0.2 5.94 3.04 34.63 12.6 0 3.71 7.38 8.12
00:46 Trim Market St 2 15.1 62 57,841 0.22 0 1.41 13.76 42.14 0 2.14 3.44 4.83
00:46 Trim Patrick St 2 13.7 69 6,784 0.19 6.38 3.36 33.64 13.85 0 2.86 6.67 7.34
00:45 Trim Patrick St 2 13.7 69 3,452 0.2 6.3 3.17 34.51 13.06 0 2.86 8.13 8.94
00:44 Trim Patrick St 2 13.7 69 114,008 0.2 6.3 3.11 34.96 14.2 0 3.71 7.41 8.15
00:43 Trim Market St 2 15.1 62 57,850 0.23 0 1.85 13.08 42.85 0 2.14 3.94 6.18
00:43 Trim Patrick St 2 13.7 69 110,697 0.19 6.33 3.13 35.39 12.42 0 2.86 7.41 8.15
00:42 Trim Market St 2 15.1 62 57,853 0.23 0 1.84 13.38 39.68 0 2.14 3.45 4.82
00:42 Trim Patrick St 2 13.7 68 107,569 0.19 5.6 3.35 33.13 13.73 0 3.71 8.15 8.97